{"data":{"norad_id":53029,"epoch":"2026-05-25T03:21:03.713184Z","epoch_age_seconds":63737,"freshness":"FRESH","line1":"1 53029U 22076AV  26145.13962631  .00001988  00000+0  14293-3 0  9992","line2":"2 53029  53.2132  90.9205 0001702  80.2244 279.8940 15.08845765214669","mean_motion":15.08845765,"eccentricity":0.0001702,"inclination_deg":53.2132,"raan_deg":90.9205,"arg_perigee_deg":80.2244,"mean_anomaly_deg":279.894,"bstar":0.00014293,"rev_number":21466,"period_min":95.437190029824,"perigee_km":538.54834747847,"apogee_km":540.9031879646,"semimajor_km":6917.8627677215,"source":"CELESTRAK","updated_at":"2026-05-25T13:38:17.282891Z"}}